DW8185 Pensacola FL US current weather conditions

sailwx.info

Wind from 085

Air temperature 23.3° C
Dewpoint -35.8° C

Last reported at 2020-Sep-24 07:02 UTC.
Time now 2020-Sep-24 07:39 UTC

Location: N 30°31' W 087°20'.
View on Google Maps.

See reports from other nearby stations

  
Tides and Currents Weather Stations Pressure Air Temp Water Temp Dewpoint Dewpoint Depression Visibility Wind Speed Wind Dir Waves Ship Positions
date/time (UTC)wind fromknots sea level pressurealtimeterstation pressurevisibilityair tempwater tempwave heightnotes
2020-Sep-24 07:02 085 23.3
2020-Sep-24 06:47 125 1 gusting 5 23.3
2020-Sep-24 06:32 110 3 gusting 13 23.9
2020-Sep-24 06:16 136 1 gusting 6 23.3
2020-Sep-24 06:00 079 1 gusting 6 23.3
2020-Sep-24 05:45 115 0 gusting 9 23.3
2020-Sep-24 05:30 122 3 gusting 12 24.4
2020-Sep-24 05:15 080 1 gusting 7 25.0
2020-Sep-24 05:00 117 2 gusting 13 25.0
2020-Sep-24 04:45 158 2 gusting 10 25.0
2020-Sep-24 04:30 130 4 gusting 9 25.6
2020-Sep-24 04:02 092 2 gusting 8 25.6
2020-Sep-24 03:46 144 2 gusting 13 25.6
2020-Sep-24 03:31 049 0 gusting 5 25.6
2020-Sep-24 03:17 150 2 gusting 6 25.6
2020-Sep-24 03:01 129 2 gusting 9 25.6
2020-Sep-24 02:46 101 1 gusting 7 25.6
2020-Sep-24 02:31 139 2 gusting 9 25.6
2020-Sep-24 02:16 122 1 gusting 8 25.6
2020-Sep-24 02:01 132 3 gusting 9 25.6
2020-Sep-24 01:46 120 2 gusting 6 25.6
2020-Sep-24 01:31 117 1 gusting 10 25.6
2020-Sep-24 01:16 150 3 gusting 10 25.6
2020-Sep-24 01:01 117 3 gusting 8 25.6
2020-Sep-24 00:46 149 3 gusting 7 25.6
2020-Sep-24 00:30 142 2 gusting 6 25.6
2020-Sep-24 00:15 131 0 gusting 6 25.6
2020-Sep-24 00:00 094 1 gusting 6 25.6
2020-Sep-23 23:45 088 2 gusting 10 25.6
2020-Sep-23 23:30 120 3 gusting 9 26.1
2020-Sep-23 23:15 091 5 gusting 13 26.1
2020-Sep-23 23:00 153 3 gusting 10 26.7
2020-Sep-23 22:47 216 3 gusting 12 26.7
2020-Sep-23 22:31 144 1 gusting 12 26.1
2020-Sep-23 22:17 125 2 gusting 9 26.1
2020-Sep-23 22:01 071 2 gusting 11 26.7
2020-Sep-23 21:46 127 5 gusting 12 26.7
2020-Sep-23 21:31 177 4 gusting 10 26.7
2020-Sep-23 21:15 158 7 gusting 16 26.7
2020-Sep-23 21:01 082 6 gusting 17 26.7
2020-Sep-23 20:45 095 6 gusting 13 26.7
2020-Sep-23 20:30 153 4 gusting 13 26.7
2020-Sep-23 20:15 206 4 gusting 9 26.7
2020-Sep-23 20:00 123 6 gusting 13 26.7
2020-Sep-23 19:45 160 1 gusting 8 26.7
2020-Sep-23 19:31 180 5 gusting 13 27.2
2020-Sep-23 19:17 138 5 gusting 13 27.2
2020-Sep-23 19:02 124 6 gusting 14 27.2
2020-Sep-23 18:46 125 4 gusting 17 27.2
2020-Sep-23 18:31 149 4 gusting 13 26.7
2020-Sep-23 18:16 084 2 gusting 13 26.7
2020-Sep-23 18:01 122 5 gusting 11 26.7
2020-Sep-23 17:46 132 6 gusting 13 26.7
2020-Sep-23 17:31 121 4 gusting 14 26.1
2020-Sep-23 17:15 140 4 gusting 11 25.6
2020-Sep-23 17:00 103 0 gusting 5 25.0
2020-Sep-23 16:46 072 0 gusting 5 24.4
2020-Sep-23 16:30 116 1 gusting 5 24.4
2020-Sep-23 16:15 110 23.9
2020-Sep-23 16:00 057 0 gusting 3 23.3
2020-Sep-23 15:45 050 0 gusting 5 23.9
2020-Sep-23 15:31 146 3 gusting 9 24.4
2020-Sep-23 15:18 095 2 gusting 12 25.6
2020-Sep-23 15:01 118 2 gusting 7 24.4
2020-Sep-23 14:46 077 1 gusting 9 23.9
2020-Sep-23 14:31 077 0 gusting 9 23.9
2020-Sep-23 14:16 080 1 gusting 6 23.9
2020-Sep-23 14:01 072 1 gusting 5 22.2
2020-Sep-23 13:45 088 0 gusting 3 21.7
2020-Sep-23 13:30 098 1 gusting 4 21.7
2020-Sep-23 13:15 072 1 gusting 5 22.2
2020-Sep-23 13:01 105 1 gusting 4 21.7
2020-Sep-23 12:45 083 0 gusting 6 20.6
2020-Sep-23 12:30 020 0 gusting 3 20.6
2020-Sep-23 12:17 083 20.6
2020-Sep-23 12:02 036 20.0
2020-Sep-23 11:46 353 20.0
2020-Sep-23 11:31 360 20.0
2020-Sep-23 11:17 082 20.0
2020-Sep-23 11:01 009 19.4
2020-Sep-23 10:45 038 19.4
2020-Sep-23 10:30 044 18.9
2020-Sep-23 10:15 021 18.9
2020-Sep-23 10:00 312 18.3
2020-Sep-23 09:45 300 18.3
2020-Sep-23 09:30 300 18.3
2020-Sep-23 09:15 300 18.3
2020-Sep-23 09:00 300 18.3
2020-Sep-23 08:46 300 18.9
2020-Sep-23 08:31 300 18.9
2020-Sep-23 08:15 300 19.4
2020-Sep-23 08:01 300 20.0
2020-Sep-23 07:46 281 20.0
2020-Sep-23 07:30 238 20.0
2020-Sep-23 07:16 007 20.0
2020-Sep-23 07:01 030 20.0
2020-Sep-23 06:46 056 20.6
2020-Sep-23 06:32 006 20.6
2020-Sep-23 06:16 013 20.6
2020-Sep-23 06:01 354 20.6
2020-Sep-23 05:46 320 20.6
2020-Sep-23 05:31 058 20.6
2020-Sep-23 05:15 082 20.6
2020-Sep-23 05:00 046 20.6
2020-Sep-23 04:46 035 20.6
2020-Sep-23 04:30 007 20.6
2020-Sep-23 04:16 079 20.6
2020-Sep-23 04:00 099 20.6
2020-Sep-23 03:45 018 20.6
2020-Sep-23 03:30 072 20.6
2020-Sep-23 03:16 108 20.6
2020-Sep-23 03:01 292 21.1
2020-Sep-23 02:45 282 20.6
2020-Sep-23 02:32 065 20.6
2020-Sep-23 02:16 053 0 gusting 3 20.6
2020-Sep-23 02:01 297 20.6
2020-Sep-23 01:31 333 21.1
2020-Sep-23 01:02 031 21.1
2020-Sep-23 00:48 075 21.1
2020-Sep-23 00:31 087 0 gusting 2 21.1
2020-Sep-23 00:17 003 21.7
2020-Sep-23 00:00 030 21.7
2020-Sep-22 23:45 053 0 gusting 2 21.7
2020-Sep-22 23:32 032 22.2